When you browse on this site, cookies collect data to enhance your experience and personalize the content and advertising you see.
Visit our Privacy Policy to learn more. By continuing to use the site, you agree to this use of cookies and data.
  • In Hungary
  • List of Countries
  • For 7 days
  • Water Temperature
  • Weather Map
  • News
  • Weather Widgets
  • user-avatar
    Login

    Hourly Weather Hutrah

    Today, 17 October, Thursday

    Time Temperature Precipitation Wind Pressure Humidity
    00:00 +8°C° 0 mm 1 mps 615 mmHg 52%
    01:00 +8°C° 0 mm 1 mps 615 mmHg 53%
    02:00 +7°C° 0 mm 1 mps 615 mmHg 53%
    03:00 +7°C° 0 mm 1 mps 615 mmHg 53%
    04:00 +7°C° 0 mm 1 mps 615 mmHg 54%
    05:00 +7°C° 0 mm 1 mps 615 mmHg 55%
    06:00 +7°C° 0 mm 1 mps 615 mmHg 55%
    07:00 +9°C° 0 mm 1 mps 616 mmHg 51%
    08:00 +11°C° 0 mm 1 mps 617 mmHg 47%
    09:00 +14°C° 0 mm 1 mps 618 mmHg 42%
    10:00 +15°C° 0 mm 1 mps 618 mmHg 40%
    11:00 +16°C° 0 mm 2 mps 618 mmHg 38%
    12:00 +17°C° 0 mm 2 mps 619 mmHg 36%
    13:00 +16°C° 0 mm 2 mps 618 mmHg 37%
    14:00 +16°C° 0 mm 2 mps 618 mmHg 38%
    15:00 +16°C° 0 mm 2 mps 617 mmHg 39%
    16:00 +14°C° 0 mm 1 mps 617 mmHg 47%
    17:00 +11°C° 0 mm 1 mps 616 mmHg 56%
    18:00 +9°C° 0 mm 1 mps 615 mmHg 64%
    19:00 +9°C° 0 mm 1 mps 615 mmHg 63%
    20:00 +8°C° 0 mm 1 mps 615 mmHg 63%
    21:00 +8°C° 0 mm 1 mps 615 mmHg 62%
    22:00 +8°C° 0 mm 1 mps 614 mmHg 61%
    23:00 +7°C° 0 mm 1 mps 614 mmHg 61%

    Tomorrow, 18 October, Friday

    Time Temperature Precipitation Wind Pressure Humidity
    00:00 +7°C° 0 mm 1 mps 614 mmHg 61%
    01:00 +7°C° 0 mm 1 mps 614 mmHg 61%
    02:00 +7°C° 0 mm 1 mps 614 mmHg 61%
    03:00 +7°C° 0 mm 1 mps 614 mmHg 61%
    04:00 +7°C° 0 mm 1 mps 613 mmHg 61%
    05:00 +7°C° 0 mm 1 mps 613 mmHg 60%
    06:00 +7°C° 0 mm 1 mps 613 mmHg 60%
    07:00 +10°C° 0 mm 1 mps 614 mmHg 53%
    08:00 +12°C° 0 mm 1 mps 615 mmHg 46%
    09:00 +14°C° 0 mm 0 mps 616 mmHg 40%
    10:00 +16°C° 0 mm 1 mps 616 mmHg 37%
    11:00 +18°C° 0 mm 1 mps 616 mmHg 34%
    12:00 +19°C° 0 mm 1 mps 617 mmHg 30%
    13:00 +19°C° 0 mm 1 mps 616 mmHg 32%
    14:00 +19°C° 0 mm 1 mps 616 mmHg 34%
    15:00 +18°C° 0 mm 1 mps 615 mmHg 36%
    16:00 +15°C° 0 mm 1 mps 615 mmHg 43%
    17:00 +13°C° 0 mm 1 mps 614 mmHg 49%
    18:00 +11°C° 0 mm 1 mps 613 mmHg 56%
    19:00 +11°C° 0 mm 1 mps 613 mmHg 53%
    20:00 +10°C° 0 mm 1 mps 613 mmHg 51%
    21:00 +9°C° 0 mm 2 mps 613 mmHg 49%
    22:00 +9°C° 0 mm 1 mps 613 mmHg 48%
    23:00 +9°C° 0 mm 1 mps 613 mmHg 47%

    Day after tomorrow, 19 October, Saturday

    Time Temperature Precipitation Wind Pressure Humidity
    00:00 +9°C° 0 mm 1 mps 613 mmHg 46%
    01:00 +9°C° 0 mm 1 mps 612 mmHg 46%
    02:00 +8°C° 0 mm 1 mps 612 mmHg 46%
    03:00 +8°C° 0 mm 1 mps 612 mmHg 46%
    04:00 +8°C° 0 mm 1 mps 612 mmHg 47%
    05:00 +8°C° 0 mm 1 mps 613 mmHg 48%
    06:00 +8°C° 0 mm 1 mps 613 mmHg 49%
    07:00 +10°C° 0 mm 1 mps 614 mmHg 45%
    08:00 +13°C° 0 mm 1 mps 615 mmHg 42%
    09:00 +14°C° 0 mm 0 mps 616 mmHg 38%
    10:00 +16°C° 0 mm 1 mps 616 mmHg 38%
    11:00 +18°C° 0 mm 1 mps 616 mmHg 37%
    12:00 +19°C° 0 mm 1 mps 617 mmHg 37%
    13:00 +18°C° 0.1 mm 1 mps 616 mmHg 39%
    14:00 +18°C° 0.1 mm 1 mps 616 mmHg 42%
    15:00 +18°C° 0.1 mm 1 mps 615 mmHg 44%
    16:00 +15°C° 0.2 mm 1 mps 615 mmHg 51%
    17:00 +13°C° 0.2 mm 1 mps 615 mmHg 58%
    18:00 +12°C° 0.2 mm 1 mps 614 mmHg 65%
    19:00 +11°C° 0 mm 1 mps 614 mmHg 68%
    20:00 +9°C° 0 mm 0 mps 614 mmHg 70%
    21:00 +9°C° 0 mm 0 mps 614 mmHg 72%
    22:00 +8°C° 0 mm 0 mps 614 mmHg 73%
    23:00 +8°C° 0 mm 0 mps 614 mmHg 75%

    20 October, Sunday

    Time Temperature Precipitation Wind Pressure Humidity
    00:00 +8°C° 0 mm 1 mps 614 mmHg 76%
    01:00 +8°C° 0 mm 1 mps 614 mmHg 77%
    02:00 +8°C° 0 mm 1 mps 614 mmHg 78%
    03:00 +8°C° 0 mm 1 mps 614 mmHg 80%
    04:00 +8°C° 0 mm 1 mps 614 mmHg 79%
    05:00 +7°C° 0 mm 1 mps 614 mmHg 79%
    06:00 +7°C° 0 mm 1 mps 614 mmHg 79%
    07:00 +9°C° 0 mm 1 mps 615 mmHg 73%
    08:00 +11°C° 0 mm 1 mps 616 mmHg 66%
    09:00 +12°C° 0 mm 0 mps 617 mmHg 60%
    10:00 +14°C° 0.1 mm 1 mps 617 mmHg 59%
    11:00 +15°C° 0.1 mm 1 mps 617 mmHg 57%
    12:00 +16°C° 0.1 mm 2 mps 617 mmHg 56%
    13:00 +15°C° 0.4 mm 2 mps 617 mmHg 59%
    14:00 +15°C° 0.4 mm 2 mps 617 mmHg 61%
    15:00 +15°C° 0.4 mm 1 mps 617 mmHg 63%
    16:00 +13°C° 0.3 mm 1 mps 616 mmHg 71%
    17:00 +12°C° 0.3 mm 1 mps 616 mmHg 78%
    18:00 +10°C° 0.3 mm 1 mps 615 mmHg 86%
    19:00 +10°C° 0.1 mm 1 mps 615 mmHg 87%
    20:00 +8°C° 0.1 mm 0 mps 615 mmHg 88%
    21:00 +8°C° 0.1 mm 0 mps 615 mmHg 89%
    22:00 +8°C° 0 mm 0 mps 616 mmHg 89%
    23:00 +9°C° 0 mm 1 mps 616 mmHg 89%

    21 October, Monday

    Time Temperature Precipitation Wind Pressure Humidity
    00:00 +9°C° 0 mm 1 mps 616 mmHg 89%
    01:00 +9°C° 0 mm 1 mps 615 mmHg 88%
    02:00 +9°C° 0 mm 1 mps 615 mmHg 88%
    03:00 +7°C° 0 mm 0 mps 615 mmHg 87%
    04:00 +8°C° 0 mm 1 mps 615 mmHg 87%
    05:00 +7°C° 0 mm 1 mps 615 mmHg 87%
    06:00 +7°C° 0 mm 1 mps 615 mmHg 87%
    07:00 +8°C° 0 mm 1 mps 615 mmHg 81%
    08:00 +10°C° 0 mm 1 mps 616 mmHg 75%
    09:00 +12°C° 0 mm 1 mps 617 mmHg 70%
    10:00 +13°C° 0 mm 1 mps 617 mmHg 67%
    11:00 +14°C° 0 mm 2 mps 617 mmHg 64%
    12:00 +14°C° 0 mm 2 mps 617 mmHg 62%
    13:00 +14°C° 0.1 mm 2 mps 617 mmHg 63%
    14:00 +14°C° 0.1 mm 2 mps 617 mmHg 64%
    15:00 +14°C° 0.1 mm 2 mps 617 mmHg 65%
    16:00 +12°C° 0 mm 1 mps 616 mmHg 72%
    17:00 +11°C° 0 mm 1 mps 615 mmHg 79%
    18:00 +9°C° 0 mm 1 mps 615 mmHg 86%
    19:00 +9°C° 0 mm 1 mps 615 mmHg 87%
    20:00 +8°C° 0 mm 1 mps 615 mmHg 88%
    21:00 +8°C° 0 mm 1 mps 615 mmHg 89%
    22:00 +8°C° 0 mm 1 mps 615 mmHg 89%
    23:00 +8°C° 0 mm 1 mps 614 mmHg 89%

    22 October, Tuesday

    Time Temperature Precipitation Wind Pressure Humidity
    00:00 +7°C° 0 mm 1 mps 614 mmHg 89%
    01:00 +7°C° 0 mm 1 mps 614 mmHg 88%
    02:00 +7°C° 0 mm 1 mps 614 mmHg 88%
    03:00 +7°C° 0 mm 1 mps 614 mmHg 88%
    04:00 +6°C° 0 mm 1 mps 614 mmHg 87%
    05:00 +6°C° 0 mm 1 mps 614 mmHg 87%
    06:00 +6°C° 0 mm 1 mps 614 mmHg 86%
    07:00 +8°C° 0 mm 1 mps 614 mmHg 78%
    08:00 +10°C° 0 mm 1 mps 615 mmHg 71%
    09:00 +12°C° 0 mm 1 mps 616 mmHg 63%
    10:00 +13°C° 0 mm 1 mps 616 mmHg 60%
    11:00 +14°C° 0 mm 2 mps 617 mmHg 57%
    12:00 +15°C° 0 mm 2 mps 617 mmHg 53%
    13:00 +15°C° 0 mm 2 mps 617 mmHg 55%
    14:00 +14°C° 0 mm 2 mps 616 mmHg 57%
    15:00 +14°C° 0 mm 2 mps 616 mmHg 58%
    16:00 +12°C° 0 mm 1 mps 615 mmHg 67%
    17:00 +11°C° 0 mm 1 mps 614 mmHg 75%
    18:00 +9°C° 0 mm 1 mps 614 mmHg 83%
    19:00 +8°C° 0 mm 1 mps 614 mmHg 83%
    20:00 +8°C° 0 mm 1 mps 613 mmHg 83%
    21:00 +7°C° 0 mm 1 mps 613 mmHg 84%
    22:00 +7°C° 0 mm 1 mps 613 mmHg 83%
    23:00 +7°C° 0 mm 1 mps 613 mmHg 83%
    Show more